{"data":{"norad_id":40039,"intl_designator":"2014-033AF","name":"PERSEUS-M1","alt_names":[],"object_type":"PAYLOAD","status":"ACTIVE","operator":null,"country":"CIS","launch_date":"2014-06-19","launch_site_code":"DLS","launch_vehicle":null,"mission":null,"orbit_class":"UNKNOWN","rcs_meters":0.129,"size_class":null,"mass_kg":null,"dimensions":null,"purposes":["tech_demo"],"wikipedia_slug":null,"has_3d_model":false,"image_url":null,"decayed_at":null,"tle_current":{"epoch":"2026-05-25T02:06:39.595392Z","epoch_age_seconds":64675,"freshness":"FRESH","line1":"1 40039U 14033AF  26145.08795828  .00001004  00000+0  95940-4 0  9997","line2":"2 40039  97.9634  88.8439 0012198  20.9390 339.2327 14.95541211647188","mean_motion":14.95541211,"eccentricity":0.0012198,"inclination_deg":97.9634,"raan_deg":88.8439,"arg_perigee_deg":20.939,"mean_anomaly_deg":339.2327,"bstar":9.594e-5,"rev_number":64718,"period_min":96.286213272394,"perigee_km":572.20500818357,"apogee_km":589.18177080178,"semimajor_km":6958.8303894927,"source":"CELESTRAK","updated_at":"2026-05-25T13:38:25.522557Z"}}}